Simultaneous Nadir Overpasses (SNOs) Predictions

Prediction of SNOs near equator between NOAA-19 and NPP Satellite Orbit:

Table of predicted SNOs near equator for the next 14.0 days since TLE Epoch: 8/5/2012
Index Date (NOAA-19) Time (NOAA-19) NOAA-19 Lat,Lon Date (NPP) Time (NPP) NPP Lat,Lon Distance(km) Time Diff (sec)
1 08/09/2012 23:50:51 -29.96, 20.40 08/09/2012 23:45:21 -29.78, 19.45 94.15 330
2 08/10/2012 00:41:56 30.00,-172.37 08/10/2012 00:36:10 29.81,-173.26 87.91 346
3 08/10/2012 01:32:56 -29.95, -5.11 08/10/2012 01:26:51 -29.79, -5.93 80.38 365
4 08/10/2012 02:24:01 29.99, 162.11 08/10/2012 02:17:40 29.81, 161.37 74.18 381
5 08/10/2012 03:15:01 -29.94, -30.63 08/10/2012 03:08:21 -29.79, -31.30 66.63 400
6 08/10/2012 04:06:06 29.98, 136.59 08/10/2012 03:59:11 29.88, 135.97 60.44 415
7 08/10/2012 04:57:07 -29.99, -56.17 08/10/2012 04:49:52 -29.86, -56.69 52.87 435
8 08/10/2012 05:48:11 29.97, 111.07 08/10/2012 05:40:41 29.88, 110.60 46.63 450
9 08/10/2012 06:39:12 -29.98, -81.69 08/10/2012 06:31:23 -29.92, -82.09 39.11 469
10 08/10/2012 07:30:16 29.96, 85.55 08/10/2012 07:22:11 29.89, 85.22 32.84 485
11 08/10/2012 08:21:17 -29.97,-107.21 08/10/2012 08:12:53 -29.93,-107.46 25.30 504
12 08/10/2012 09:12:21 29.95, 60.03 08/10/2012 09:03:41 29.90, 59.84 19.11 520
13 08/10/2012 10:03:22 -29.96,-132.72 08/10/2012 09:54:23 -29.94,-132.84 11.54 539
14 08/10/2012 10:54:27 29.99, 34.50 08/10/2012 10:45:12 29.96, 34.45 5.79 555
15 08/10/2012 11:42:36 -20.00,-155.64 08/10/2012 11:33:03 -20.00,-155.65 1.61 573
16 08/10/2012 12:29:09 4.21, 15.31 08/10/2012 12:19:23 4.21, 15.31 0.27 586
17 08/10/2012 13:20:26 -5.08,-177.65 08/10/2012 13:10:26 -5.52,-177.66 48.07 600




NCC Satellite Simultaneous Nadir Overpasses (SNOs) Prediction Service
